| time (UTC) | temp F | wind direction | speed MPH | gust MPH | rain 1hr in | rain 24hr in | rain mn in | humidity % | barometer mb |
| 20260903055949 | 64 | 215 | 0.0 | 2.0 | 0.00 | 0.02 | 0.00 | 84 | 1012.8 |
| 20260903054947 | 63 | 275 | 0.0 | 0.0 | 0.00 | 0.02 | 0.00 | 85 | 1012.6 |
| 20260903054002 | 63 | 266 | 0.0 | 0.0 | 0.00 | 0.02 | 0.00 | 85 | 1012.6 |
| 20260903051907 | 63 | 342 | 0.0 | 0.0 | 0.00 | 0.02 | 0.00 | 85 | 1012.6 |
| 20260903050917 | 63 | 334 | 0.0 | 0.0 | 0.00 | 0.02 | 0.00 | 85 | 1012.7 |
| 20260903045903 | 64 | 80 | 0.0 | 1.0 | 0.00 | 0.02 | 0.00 | 85 | 1012.6 |
| 20260903044918 | 64 | 122 | 0.0 | 0.0 | 0.00 | 0.02 | 0.00 | 85 | 1012.6 |
| 20260903043903 | 64 | 159 | 0.0 | 0.0 | 0.00 | 0.02 | 0.00 | 85 | 1012.3 |
| 20260903042925 | 64 | 62 | 0.0 | 0.0 | 0.00 | 0.02 | 0.00 | 85 | 1012.3 |
| 20260903040758 | 64 | 300 | 0.0 | 0.0 | 0.00 | 0.02 | 0.00 | 84 | 1012.3 |
| 20260903035737 | 64 | 39 | 0.0 | 0.0 | 0.00 | 0.02 | 0.00 | 84 | 1012.3 |
| 20260903034733 | 64 | 268 | 0.0 | 1.0 | 0.00 | 0.02 | 0.00 | 85 | 1012.3 |
| 20260903033746 | 64 | 19 | 0.0 | 0.0 | 0.00 | 0.02 | 0.00 | 85 | 1012.1 |
| 20260903032751 | 64 | 40 | 0.0 | 4.0 | 0.00 | 0.02 | 0.00 | 85 | 1012.0 |
| 20260903031751 | 64 | 341 | 0.0 | 3.0 | 0.00 | 0.02 | 0.00 | 85 | 1012.0 |
| 20260903030815 | 64 | 245 | 0.0 | 3.0 | 0.00 | 0.02 | 0.00 | 86 | 1012.1 |
| 20260903025815 | 64 | 4 | 0.0 | 0.0 | 0.00 | 0.02 | 0.00 | 87 | 1012.1 |
| 20260903024803 | 64 | 293 | 0.0 | 0.0 | 0.00 | 0.02 | 0.00 | 87 | 1012.3 |
| 20260903023811 | 64 | 355 | 0.0 | 0.0 | 0.00 | 0.02 | 0.00 | 87 | 1012.2 |
| 20260903022752 | 64 | 68 | 0.0 | 0.0 | 0.00 | 0.02 | 0.00 | 87 | 1012.3 |
| 20260903021815 | 64 | 70 | 0.0 | 3.0 | 0.00 | 0.02 | 0.00 | 87 | 1012.6 |
| 20260903020755 | 64 | 24 | 0.0 | 0.0 | 0.00 | 0.02 | 0.00 | 87 | 1012.5 |
| 20260903015800 | 64 | 341 | 0.0 | 0.0 | 0.00 | 0.02 | 0.00 | 87 | 1012.3 |
| 20260903014806 | 64 | 304 | 0.0 | 1.0 | 0.00 | 0.02 | 0.00 | 88 | 1012.4 |
| 20260903012642 | 64 | 84 | 0.0 | 0.0 | 0.00 | 0.02 | 0.00 | 87 | 1012.1 |
| 20260903011625 | 64 | 84 | 0.0 | 0.0 | 0.00 | 0.02 | 0.00 | 87 | 1012.2 |
| 20260903010559 | 64 | 44 | 0.0 | 0.0 | 0.00 | 0.02 | 0.00 | 87 | 1012.3 |
| 20260903005528 | 64 | 34 | 0.0 | 2.0 | 0.00 | 0.02 | 0.00 | 87 | 1012.4 |
| 20260903004511 | 64 | 77 | 0.0 | 3.0 | 0.00 | 0.02 | 0.00 | 87 | 1012.5 |
| 20260903003525 | 64 | 351 | 0.0 | 2.0 | 0.00 | 0.02 | 0.00 | 86 | 1012.8 |
| 20260903002507 | 64 | 68 | 0.0 | 3.0 | 0.00 | 0.02 | 0.00 | 86 | 1012.7 |
| 20260903001532 | 64 | 88 | 0.0 | 0.0 | 0.00 | 0.02 | 0.00 | 86 | 1012.8 |
| 20260903000503 | 64 | 90 | 0.0 | 4.0 | 0.00 | 0.02 | 0.00 | 87 | 1012.7 |
| 20260902234307 | 63 | 47 | 0.0 | 0.0 | 0.00 | 0.02 | 0.00 | 88 | 1012.8 |
| 20260902233307 | 63 | 288 | 0.0 | 0.0 | 0.00 | 0.02 | 0.00 | 88 | 1012.8 |
| 20260902232257 | 63 | 67 | 0.0 | 0.0 | 0.00 | 0.02 | 0.00 | 88 | 1012.7 |
| 20260902230121 | 63 | 101 | 0.0 | 0.0 | 0.00 | 0.02 | 0.00 | 87 | 1012.8 |
| 20260902225119 | 63 | 21 | 0.0 | 0.0 | 0.00 | 0.02 | 0.02 | 86 | 1012.9 |
| 20260902224119 | 64 | 21 | 0.0 | 0.0 | 0.00 | 0.02 | 0.02 | 86 | 1013.1 |
| 20260902223121 | 64 | 257 | 0.0 | 2.0 | 0.00 | 0.02 | 0.02 | 86 | 1013.0 |
| 20260902222138 | 64 | 302 | 0.0 | 1.0 | 0.00 | 0.02 | 0.02 | 86 | 1013.1 |
| 20260902221142 | 64 | 329 | 0.0 | 1.0 | 0.00 | 0.02 | 0.02 | 86 | 1013.1 |
| 20260902220106 | 64 | 39 | 0.0 | 0.0 | 0.00 | 0.02 | 0.02 | 85 | 1013.2 |
| 20260902215036 | 64 | 238 | 0.0 | 0.0 | 0.00 | 0.02 | 0.02 | 85 | 1013.2 |
| 20260902214057 | 64 | 127 | 0.0 | 1.0 | 0.00 | 0.02 | 0.02 | 85 | 1013.1 |
| 20260902213052 | 65 | 33 | 0.0 | 1.0 | 0.00 | 0.02 | 0.02 | 85 | 1013.1 |
| 20260902212058 | 65 | 273 | 0.0 | 2.0 | 0.00 | 0.02 | 0.02 | 85 | 1013.1 |
| 20260902211059 | 65 | 293 | 0.0 | 0.0 | 0.00 | 0.02 | 0.02 | 86 | 1013.0 |
| 20260902210034 | 64 | 265 | 0.0 | 2.0 | 0.00 | 0.02 | 0.02 | 87 | 1013.0 |
| 20260902205057 | 64 | 25 | 0.0 | 1.0 | 0.00 | 0.02 | 0.02 | 88 | 1013.0 |
| 20260902204029 | 64 | 314 | 0.0 | 0.0 | 0.00 | 0.02 | 0.02 | 88 | 1013.0 |
| 20260902203038 | 64 | 354 | 0.0 | 1.0 | 0.00 | 0.02 | 0.02 | 89 | 1013.1 |
| 20260902202046 | 64 | 258 | 0.0 | 0.0 | 0.00 | 0.02 | 0.02 | 89 | 1012.9 |
| 20260902201021 | 64 | 255 | 0.0 | 2.0 | 0.00 | 0.02 | 0.02 | 89 | 1012.8 |
| 20260902194902 | 64 | 353 | 0.0 | 0.0 | 0.00 | 0.02 | 0.02 | 89 | 1012.9 |
| 20260902193905 | 64 | 70 | 0.0 | 0.0 | 0.00 | 0.02 | 0.02 | 89 | 1012.8 |
| 20260902192858 | 65 | 69 | 0.0 | 1.0 | 0.00 | 0.02 | 0.02 | 89 | 1012.8 |
| 20260902191833 | 65 | 233 | 0.0 | 0.0 | 0.00 | 0.02 | 0.02 | 89 | 1012.8 |
| 20260902190840 | 65 | 50 | 0.0 | 3.0 | 0.00 | 0.02 | 0.02 | 89 | 1012.7 |
| 20260902185842 | 65 | 56 | 0.0 | 0.0 | 0.00 | 0.02 | 0.02 | 89 | 1012.8 |
| 20260902184903 | 65 | 8 | 0.0 | 1.0 | 0.00 | 0.02 | 0.02 | 89 | 1012.8 |
| 20260902183910 | 65 | 14 | 0.0 | 0.0 | 0.00 | 0.02 | 0.02 | 89 | 1012.7 |
| 20260902182848 | 65 | 32 | 0.0 | 1.0 | 0.00 | 0.02 | 0.02 | 89 | 1012.6 |
| 20260902180722 | 65 | 8 | 0.0 | 0.0 | 0.00 | 0.02 | 0.02 | 89 | 1012.7 |
| 20260902174518 | 64 | 8 | 0.0 | 0.0 | 0.00 | 0.02 | 0.02 | 89 | 1012.8 |
| 20260902172324 | 64 | 8 | 0.0 | 0.0 | 0.00 | 0.02 | 0.02 | 88 | 1013.2 |
| 20260902171324 | 64 | 12 | 0.0 | 0.0 | 0.00 | 0.02 | 0.02 | 88 | 1013.2 |
| 20260902170301 | 64 | 21 | 0.0 | 0.0 | 0.00 | 0.02 | 0.02 | 88 | 1013.3 |
| 20260902165314 | 64 | 25 | 0.0 | 0.0 | 0.00 | 0.02 | 0.02 | 88 | 1013.3 |
| 20260902162037 | 64 | 93 | 0.0 | 0.0 | 0.00 | 0.02 | 0.02 | 88 | 1013.6 |
| 20260902161050 | 64 | 340 | 0.0 | 2.0 | 0.00 | 0.02 | 0.02 | 88 | 1013.8 |
| 20260902160104 | 64 | 321 | 0.0 | 0.0 | 0.00 | 0.02 | 0.02 | 88 | 1013.9 |
| 20260902155036 | 63 | 259 | 0.0 | 0.0 | 0.00 | 0.02 | 0.02 | 88 | 1013.9 |
| 20260902154029 | 63 | 95 | 0.0 | 0.0 | 0.00 | 0.02 | 0.02 | 88 | 1014.1 |
| 20260902153035 | 63 | 20 | 0.0 | 1.0 | 0.00 | 0.02 | 0.02 | 88 | 1014.1 |
| 20260902152023 | 63 | 24 | 0.0 | 0.0 | 0.00 | 0.02 | 0.02 | 87 | 1014.4 |
| 20260902151036 | 63 | 3 | 0.0 | 0.0 | 0.00 | 0.02 | 0.02 | 87 | 1014.5 |
| 20260902150031 | 63 | 359 | 0.0 | 0.0 | 0.00 | 0.02 | 0.02 | 87 | 1014.5 |
| 20260902145050 | 63 | 323 | 0.0 | 2.0 | 0.00 | 0.02 | 0.02 | 86 | 1014.6 |
| 20260902141848 | 63 | 65 | 0.0 | 0.0 | 0.03 | 0.01 | 0.02 | 84 | 1015.1 |
| 20260902140910 | 64 | 294 | 0.0 | 0.0 | 0.00 | 0.01 | 0.01 | 82 | 1015.2 |
| 20260902135935 | 65 | 162 | 0.0 | 4.0 | 0.00 | 0.00 | 0.00 | 80 | 1015.2 |
| 20260902134924 | 65 | 186 | 0.0 | 0.0 | 0.00 | 0.00 | 0.00 | 79 | 1015.3 |
| 20260902133914 | 65 | 338 | 0.0 | 2.0 | 0.00 | 0.00 | 0.00 | 79 | 1015.3 |
| 20260902131742 | 65 | 281 | 0.0 | 3.0 | 0.00 | 0.00 | 0.00 | 80 | 1015.7 |
| 20260902130726 | 65 | 269 | 0.0 | 0.0 | 0.00 | 0.00 | 0.00 | 80 | 1015.7 |
| 20260902125704 | 66 | 355 | 0.0 | 0.0 | 0.00 | 0.00 | 0.00 | 79 | 1015.7 |
| 20260902122504 | 65 | 76 | 0.0 | 0.0 | 0.00 | 0.00 | 0.00 | 82 | 1016.1 |
| 20260902121521 | 65 | 192 | 0.0 | 0.0 | 0.00 | 0.00 | 0.00 | 82 | 1016.3 |
| 20260902120459 | 64 | 226 | 0.0 | 0.0 | 0.00 | 0.00 | 0.00 | 81 | 1016.6 |
| 20260902115433 | 65 | 127 | 0.0 | 0.0 | 0.00 | 0.00 | 0.00 | 82 | 1016.8 |
| 20260902114419 | 64 | 348 | 0.0 | 0.0 | 0.00 | 0.00 | 0.00 | 80 | 1016.9 |
| 20260902113402 | 64 | 23 | 0.0 | 3.0 | 0.00 | 0.00 | 0.00 | 80 | 1017.1 |
| 20260902112423 | 64 | 329 | 0.0 | 3.0 | 0.00 | 0.00 | 0.00 | 78 | 1017.2 |
| 20260902110252 | 64 | 296 | 0.0 | 5.0 | 0.00 | 0.00 | 0.00 | 79 | 1017.4 |
| 20260902105250 | 64 | 48 | 0.0 | 5.0 | 0.00 | 0.00 | 0.00 | 80 | 1017.5 |
| 20260902103123 | 64 | 302 | 0.0 | 3.0 | 0.00 | 0.00 | 0.00 | 81 | 1017.5 |
| 20260902102048 | 64 | 227 | 0.0 | 2.0 | 0.00 | 0.00 | 0.00 | 81 | 1017.7 |
| 20260902101014 | 63 | 336 | 0.0 | 3.0 | 0.00 | 0.00 | 0.00 | 81 | 1017.7 |
| 20260902095947 | 63 | 51 | 0.0 | 4.0 | 0.00 | 0.00 | 0.00 | 79 | 1017.7 |
| 20260902095001 | 63 | 59 | 0.0 | 4.0 | 0.00 | 0.00 | 0.00 | 80 | 1017.8 |
| 20260902094023 | 63 | 179 | 0.0 | 5.0 | 0.00 | 0.00 | 0.00 | 81 | 1017.8 |
| 20260902093009 | 62 | 257 | 0.0 | 5.0 | 0.00 | 0.00 | 0.00 | 82 | 1017.9 |
| 20260902091947 | 62 | 69 | 0.0 | 4.0 | 0.00 | 0.00 | 0.00 | 82 | 1017.8 |
| 20260902090922 | 62 | 323 | 0.0 | 4.0 | 0.00 | 0.00 | 0.00 | 82 | 1017.8 |
| 20260902085945 | 61 | 322 | 0.0 | 2.0 | 0.00 | 0.00 | 0.00 | 82 | 1017.9 |
| 20260902083735 | 61 | 212 | 0.0 | 1.0 | 0.00 | 0.00 | 0.00 | 83 | 1017.9 |
| 20260902082743 | 61 | 15 | 0.0 | 1.0 | 0.00 | 0.00 | 0.00 | 83 | 1017.8 |
| 20260902081727 | 61 | 343 | 0.0 | 1.0 | 0.00 | 0.00 | 0.00 | 83 | 1017.8 |
| 20260902080652 | 60 | 343 | 0.0 | 0.0 | 0.00 | 0.00 | 0.00 | 83 | 1017.9 |
| 20260902075644 | 60 | 52 | 0.0 | 0.0 | 0.00 | 0.00 | 0.00 | 84 | 1017.8 |
| 20260902074613 | 60 | 359 | 0.0 | 0.0 | 0.00 | 0.00 | 0.00 | 84 | 1017.8 |
| 20260902073625 | 60 | 27 | 0.0 | 0.0 | 0.00 | 0.00 | 0.00 | 85 | 1017.8 |
| 20260902072646 | 59 | 336 | 0.0 | 0.0 | 0.00 | 0.00 | 0.00 | 85 | 1017.7 |
| 20260902071710 | 59 | 289 | 0.0 | 0.0 | 0.00 | 0.00 | 0.00 | 86 | 1017.7 |
| 20260902065608 | 58 | 279 | 0.0 | 0.0 | 0.00 | 0.00 | 0.00 | 87 | 1017.6 |
| 20260902064552 | 58 | 29 | 0.0 | 0.0 | 0.00 | 0.00 | 0.00 | 88 | 1017.5 |
| 20260902063550 | 57 | 65 | 0.0 | 3.0 | 0.00 | 0.00 | 0.00 | 88 | 1017.5 |